Lid_Strength_Index
1 -1 -1 -2 -2 -2 -1 -1 -1 -1 -1 -1 -1 -1 -1 -1 -1 -1 -1 -1 -1 -1 -1 -1 -1 -1 -1 -1 -1 -1 -1 -1 -2 -1 -1 -1 -1 -1 -1 -1 -1 -1 -2
2 0 -2 -2 -2 -2 -2 -1 -1 -1 -2 -2 -2 -2 -2 -2 -1 -1 -1 -1 -1 -1 -1 -1 -1 -1 -1 -1 -1 -1 -1 -2 -2 -2 -1 -1 -1 -2 -1 -1 -1 -1 -1
2 1 -1 -2 -2 -2 -1 -1 -2 -2 -2 -2 -2 -2 -2 -2 -2 -2 -2 -1 -1 -1 -2 -2 -2 -2 -1 -1 -1 -1 -1 -2 -2 -2 -1 -1 -1 -2 -1 -1 -1 -1 -1
4 2 1 -0 -1 -2 -2 -2 -1 -0 -1 -1 -1 -2 -2 -2 -2 -2 -2 -1 -2 -2 -2 -2 -2 -2 -1 -1 -1 -1 -1 -1 -2 -1 -1 -1 -1 -2 -1 -1 -1 -1 -1
4 3 2 1 0 0 -1 -1 -1 -1 -1 -1 -1 -1 -1 -2 -1 -1 -1 -2 -1 -2 -2 -2 -2 -1 -1 -1 -1 -1 -1 -1 -1 -1 -2 -1 -1 -2 -1 -1 -1 -1 -1
5 4 3 2 2 1 1 1 1 1 1 1 1 1 -0 -1 0 0 -0 -0 -0 -1 -1 -2 -2 -1 -1 -1 -1 -1 -1 -1 -1 -1 -1 -1 -1 -2 -1 -1 -1 -1 -1
7 5 5 4 3 3 2 2 2 2 2 2 3 2 2 2 2 2 2 1 1 0 -0 -0 -1 -1 -1 -1 -1 -1 -1 -1 -1 -1 -1 -1 -2 -2 -1 -1 -1 -1 -1
9 8 7 6 5 4 4 4 4 4 4 4 4 4 4 4 4 4 3 3 3 2 2 2 1 0 -1 -2 -2 -1 -1 -1 -1 -1 -1 -1 -1 -2 -2 -1 -1 -1 -1
9 9 9 8 8 6 6 6 5 5 5 5 6 6 6 5 5 5 5 4 4 3 3 3 3 2 1 1 0 -0 1 0 -1 -1 -1 -1 -1 -1 -2 -2 -2 -1 -1
9 10 9 9 9 8 8 8 7 7 7 7 7 7 8 8 7 8 7 6 5 5 4 4 3 3 3 4 4 4 3 1 -1 -1 -1 -1 -1 -2 -2 -2 -2 -1 -1
10 10 9 9 9 9 9 10 9 9 9 9 9 9 8 8 8 8 9 8 7 6 5 5 4 4 5 5 5 5 4 1 0 -1 -1 -1 -1 -2 -2 -2 -2 -2 -1
11 11 10 10 10 9 10 9 9 9 9 9 9 9 9 9 9 9 9 9 8 8 7 6 6 5 6 6 6 5 5 5 4 1 -1 -1 -1 -2 -2 -2 -2 -2 -1
11 11 11 10 10 10 10 9 9 9 9 9 10 10 9 10 9 9 9 9 9 9 8 8 7 7 7 6 6 6 6 6 5 4 2 -0 -1 -2 -2 -2 -2 -2 -2
11 11 11 11 10 10 10 10 10 10 10 10 10 10 10 10 10 10 10 10 10 9 9 9 8 8 8 7 7 6 6 6 6 6 5 3 3 -0 -2 -2 -2 -2 -2
12 11 11 11 11 11 11 10 10 10 10 11 11 11 11 11 11 11 11 11 10 10 11 10 10 9 9 8 7 7 7 7 6 6 6 4 4 3 0 -2 -2 -2 -2
11 12 11 11 11 11 11 11 11 11 11 11 11 12 12 12 12 12 12 12 11 12 11 11 11 11 10 9 8 8 8 7 6 6 6 6 4 4 3 1 -2 -2 -2
11 11 12 12 11 12 12 11 11 12 12 11 12 12 13 13 13 13 13 12 12 12 12 12 11 11 11 10 10 9 8 7 7 6 6 6 5 4 3 3 1 -2 -2
11 12 11 12 12 12 12 12 12 12 12 12 12 12 13 13 13 13 13 13 13 13 12 12 12 12 12 11 11 10 9 8 8 7 6 6 5 5 4 3 2 -1 -2
11 12 12 12 12 12 12 12 13 12 12 12 12 12 13 14 14 14 14 13 13 13 13 13 13 12 13 12 11 10 10 9 8 7 7 6 5 5 4 3 3 3 0
11 11 12 12 12 12 12 13 13 13 12 12 13 13 14 13 14 14 14 14 13 14 13 13 13 13 13 12 12 12 10 8 8 7 7 6 6 5 5 4 3 3 3
12 12 12 12 12 12 13 13 13 13 13 13 13 14 14 14 15 15 14 14 14 14 14 14 13 14 13 12 13 12 11 8 8 7 6 6 5 5 4 4 3 2 2
13 13 13 13 12 13 13 13 13 14 13 13 13 14 14 15 15 15 15 15 14 14 14 14 14 14 14 13 14 13 12 10 6 7 7 7 6 5 4 3 3 2 1
13 13 13 13 13 13 13 14 14 14 14 15 14 14 14 15 15 15 15 15 14 14 14 14 14 14 15 13 13 14 13 13 12 9 8 8 7 5 4 4 3 2 1
13 12 13 13 13 13 13 14 15 15 15 14 15 14 15 15 15 15 15 15 15 14 15 14 15 14 14 15 13 13 12 12 14 14 10 9 8 8 6 4 4 3 3
13 13 13 13 13 14 14 14 15 15 15 14 15 16 16 15 15 15 15 15 15 15 15 15 15 15 14 14 14 14 14 14 13 15 16 12 9 7 7 6 4 3 2
13 13 12 13 14 13 14 14 15 15 15 16 16 17 16 16 16 16 16 16 15 15 15 15 15 15 15 14 14 14 15 16 14 14 14 13 13 11 8 7 4 4 3